This demonstration page uses our WeatherBlox Daily Observations layout. Learn more.

Hourly Observations for August 18, 2018

Temp ( °F °C ) Dew Point ( °F °C ) Humidity (%) Winds ( mph kmh ) Pressure ( in mb ) Visibility ( mi km ) Precip ( " mm )
12:15 am 00:15 Clear 66 19.1 65 18.2 95 95 Calm 30.06 1018 10 16.09344 0 0
12:35 am 00:35 Clear 67 19.3 65 18.1 93 93 SE 3 6 30.06 1018 10 16.09344 0 0
12:55 am 00:55 Clear 65 18.3 64 17.6 96 96 SE 5 7 30.06 1018 10 16.09344 0 0
1:15 am 01:15 Clear 64 17.9 63 17.1 95 95 SE 5 7 30.06 1018 10 16.09344 0 0
1:35 am 01:35 Clear 63 17.2 63 17 99 99 SE 3 6 30.06 1018 10 16.09344 0 0
1:55 am 01:55 Clear 64 17.6 63 17.4 99 99 SE 7 11 30.06 1018 10 16.09344 0 0
2:15 am 02:15 Clear 64 17.6 63 17.2 98 98 SE 3 6 30.06 1018 10 16.09344 0 0
2:35 am 02:35 Clear 62 16.5 62 16.5 100 100 SE 3 6 30.09 1019 10 16.09344 0 0
2:55 am 02:55 Clear 63 17.4 63 17.1 98 98 Calm 30.06 1018 10 16.09344 0 0
3:15 am 03:15 Clear 64 17.6 63 17.2 98 98 SSW 3 6 30.06 1018 10 16.09344 0 0
3:35 am 03:35 Clear 64 17.9 63 17.3 96 96 SSE 3 6 30.06 1018 10 16.09344 0 0
3:55 am 03:55 Clear 64 17.7 63 17.3 98 98 Calm 30.06 1018 10 16.09344 0 0
4:15 am 04:15 Partly Cloudy 63 17.2 62 16.8 98 98 Calm 30.06 1018 10 16.09344 0 0
4:35 am 04:35 Partly Cloudy 63 17.1 62 16.6 97 97 Calm 30.09 1019 10 16.09344 0 0
4:55 am 04:55 Clear 61 16.3 61 16.3 100 100 Calm 30.09 1019 10 16.09344 0 0
5:15 am 05:15 Clear 63 17.2 63 17 99 99 SSE 3 6 30.06 1018 10 16.09344 0 0
5:35 am 05:35 Clear 61 15.9 60 15.7 99 99 Calm 30.09 1019 10 16.09344 0 0
5:55 am 05:55 Clear 60 15.6 60 15.6 100 100 SSE 3 6 30.09 1019 10 16.09344 0 0
6:15 am 06:15 Clear 62 16.6 62 16.6 100 100 Calm 30.09 1019 10 16.09344 0 0
6:35 am 06:35 Clear 62 16.8 62 16.6 99 99 Calm 30.09 1019 10 16.09344 0 0
6:55 am 06:55 Sunny 60 15.6 60 15.5 99 99 Calm 30.09 1019 7 11.265408 0 0
7:15 am 07:15 Sunny 62 16.6 62 16.6 100 100 Calm 30.09 1019 10 16.09344 0 0
7:35 am 07:35 Sunny 62 16.6 62 16.4 99 99 Calm 30.09 1019 10 16.09344 0 0
7:55 am 07:55 Sunny 64 17.5 63 17.1 98 98 Calm 30.06 1018 10 16.09344 0 0
8:15 am 08:15 Sunny 65 18.1 64 17.7 98 98 S 3 6 30.06 1018 10 16.09344 0 0
8:35 am 08:35 Sunny 66 19 65 18.3 96 96 SSE 5 7 30.06 1018 10 16.09344 0 0
8:55 am 08:55 Partly Cloudy 68 20.1 67 19.2 95 95 SSE 6 9 30.06 1018 10 16.09344 0 0
9:15 am 09:15 Mostly Cloudy 69 20.8 67 19.4 92 92 SSE 6 9 30.03 1017 10 16.09344 0 0
9:35 am 09:35 Partly Cloudy 71 21.6 68 19.8 90 90 S 6 9 30.03 1017 10 16.09344 0 0
9:55 am 09:55 Sunny 73 22.5 67 19.5 83 83 S 8 13 30.03 1017 10 16.09344 0 0
10:15 am 10:15 Sunny 74 23.1 67 19.7 81 81 S 7 11 30.03 1017 10 16.09344 0 0
10:35 am 10:35 Sunny 75 23.7 67 19.7 78 78 S 9 15 30.03 1017 10 16.09344 0 0
10:55 am 10:55 Sunny 76 24.4 67 19.4 74 74 S 10 17 30 1016 10 16.09344 0 0
11:15 am 11:15 Sunny 77 25 67 19.5 72 72 SSE 12 19 29.97 1015 10 16.09344 0 0
11:35 am 11:35 Sunny 77 25 67 19.2 70 70 S 12 19 29.97 1015 10 16.09344 0 0
11:55 am 11:55 Sunny 78 25.6 67 19.2 68 68 S 12 19 29.97 1015 10 16.09344 0 0
12:15 pm 12:15 Sunny 79 26 67 19.6 68 68 S 13 20 29.97 1015 10 16.09344 0 0
12:35 pm 12:35 Sunny 80 26.4 67 19.5 66 66 S 14 22 29.97 1015 10 16.09344 0 0
12:55 pm 12:55 Sunny 80 26.5 66 19 63 63 SSE 15 24 29.97 1015 10 16.09344 0 0
1:15 pm 13:15 Sunny 80 26.7 66 19.1 63 63 S 13 20 29.97 1015 10 16.09344 0 0
1:35 pm 13:35 Partly Cloudy 81 27.3 66 19 61 61 SSE 13 20 29.97 1015 10 16.09344 0 0
1:55 pm 13:55 Partly Cloudy 81 27.4 65 18.4 58 58 SSE 14 22 29.91 1013 10 16.09344 0 0
2:15 pm 14:15 Partly Cloudy 82 27.7 66 18.7 58 58 S 10 17 29.91 1013 10 16.09344 0 0
2:35 pm 14:35 Partly Cloudy 82 27.7 65 18.3 57 57 S 10 17 29.91 1013 10 16.09344 0 0
2:55 pm 14:55 Partly Cloudy 82 27.9 65 18.3 56 56 S 9 15 29.91 1013 10 16.09344 0 0
3:15 pm 15:15 Partly Cloudy 83 28.1 64 17.8 54 54 S 10 17 29.91 1013 10 16.09344 0 0
3:35 pm 15:35 Partly Cloudy 83 28.2 64 17.5 52 52 S 9 15 29.91 1013 10 16.09344 0 0
3:55 pm 15:55 Partly Cloudy 82 28 65 18.2 55 55 S 9 15 29.88 1012 10 16.09344 0 0
4:15 pm 16:15 Partly Cloudy 83 28.2 64 18 54 54 S 10 17 29.88 1012 10 16.09344 0 0
4:35 pm 16:35 Partly Cloudy 82 27.6 66 18.7 58 58 SSE 8 13 29.88 1012 10 16.09344 0 0
4:55 pm 16:55 Sunny 83 28.5 64 17.5 51 51 S 10 17 29.85 1011 10 16.09344 0 0
5:15 pm 17:15 Sunny 83 28.5 64 17.6 52 52 S 9 15 29.85 1011 10 16.09344 0 0
5:35 pm 17:35 Sunny 83 28.5 65 18.4 54 54 S 10 17 29.85 1011 10 16.09344 0 0
5:55 pm 17:55 Sunny 82 28 64 17.8 54 54 SSE 8 13 29.85 1011 10 16.09344 0 0
6:15 pm 18:15 Partly Cloudy 82 27.5 65 18.3 57 57 S 7 11 29.85 1011 10 16.09344 0 0
6:35 pm 18:35 Mostly Cloudy 81 27 67 19.6 64 64 SSE 6 9 29.85 1011 10 16.09344 0 0
6:55 pm 18:55 Partly Cloudy 79 26.3 68 20.1 69 69 SSE 5 7 29.88 1012 10 16.09344 0 0
7:15 pm 19:15 Sunny 78 25.7 69 20.5 73 73 SSE 5 7 29.85 1011 10 16.09344 0 0
7:35 pm 19:35 Partly Cloudy 77 25.1 69 20.5 76 76 SSE 6 9 29.85 1011 10 16.09344 0 0
7:55 pm 19:55 Sunny 76 24.4 69 20.6 79 79 SSE 3 6 29.85 1011 10 16.09344 0 0
8:15 pm 20:15 Sunny 75 24.1 68 20.2 79 79 SSE 3 6 29.85 1011 10 16.09344 0 0
8:35 pm 20:35 Clear 75 23.7 68 20.1 80 80 S 3 6 29.85 1011 10 16.09344 0 0
8:55 pm 20:55 Clear 73 22.7 68 19.9 84 84 Calm 29.88 1012 10 16.09344 0 0
9:15 pm 21:15 Clear 72 22.1 68 20 88 88 S 3 6 29.88 1012 10 16.09344 0 0
9:35 pm 21:35 Clear 72 22.4 67 19.5 84 84 Calm 29.88 1012 10 16.09344 0 0
9:55 pm 21:55 Clear 72 22.2 67 19.5 85 85 SSW 3 6 29.88 1012 10 16.09344 0 0
10:15 pm 22:15 Clear 71 21.5 67 19.6 89 89 SW 5 7 29.91 1013 10 16.09344 0 0
10:35 pm 22:35 Clear 72 22 66 19.1 84 84 Calm 29.91 1013 10 16.09344 0 0
10:55 pm 22:55 Clear 70 21.2 67 19.5 90 90 SW 3 6 29.88 1012 10 16.09344 0 0
11:15 pm 23:15 Clear 71 21.5 66 19.1 86 86 SW 5 7 29.91 1013 10 16.09344 0 0
11:35 pm 23:35 Clear 71 21.5 66 19 86 86 WSW 5 7 29.91 1013 10 16.09344 0 0
11:55 pm 23:55 Clear 71 21.6 66 19 85 85 SW 6 9 29.91 1013 10 16.09344 0 0

Powered by AerisWeather